This is the latest recevied weather packets stored in our database for station/object SQ7IQO. If no packets are shown the sender has not sent any weather packets the latest 10 day(s).
| Time | Temp. | Humidity | Pressure | Rain* | Wind** | Luminosity | Snow |
|---|---|---|---|---|---|---|---|
| 1787976461 | 18.33° C | 79% | 1012 hPa | 0 mm | 0.89 m/s, ° | - | - |
| 1787976401 | 18.33° C | 78% | 1012 hPa | 0 mm | 0.89 m/s, ° | - | - |
| 1787976341 | 18.33° C | 77% | 1011.9 hPa | 0 mm | 0.89 m/s, ° | - | - |
| 1787976281 | 18.33° C | 77% | 1012 hPa | 0 mm | 0.45 m/s, ° | - | - |
| 1787976221 | 18.33° C | 76% | 1012 hPa | 0 mm | 0.45 m/s, ° | - | - |
| 1787976161 | 18.33° C | 76% | 1012 hPa | 0 mm | 0.45 m/s, ° | - | - |
| 1787976101 | 18.33° C | 75% | 1012.2 hPa | 0 mm | 0.89 m/s, ° | - | - |
| 1787976041 | 18.33° C | 75% | 1012.1 hPa | 0 mm | 0.89 m/s, ° | - | - |
| 1787975981 | 18.33° C | 75% | 1009.5 hPa | 0 mm | 0.45 m/s, ° | - | - |
| 1787975921 | 18.33° C | 74% | 1009.1 hPa | 0 mm | 1.34 m/s, ° | - | - |
| 1787975861 | 18.33° C | 73% | 1012.1 hPa | 0 mm | 0.45 m/s, ° | - | - |
| 1787975801 | 18.33° C | 73% | 1012.1 hPa | 0 mm | 0.89 m/s, ° | - | - |
| 1787975741 | 18.33° C | 72% | 1012.1 hPa | 0 mm | 0.45 m/s, ° | - | - |
| 1787975681 | 18.33° C | 72% | 1012.2 hPa | 0 mm | 0.89 m/s, ° | - | - |
| 1787975621 | 18.33° C | 71% | 1012.2 hPa | 0 mm | 0.89 m/s, ° | - | - |
| 1787975561 | 17.78° C | 71% | 1012.2 hPa | 0 mm | 0.45 m/s, ° | - | - |
| 1787975501 | 17.78° C | 71% | 1012.2 hPa | 0 mm | 0.89 m/s, ° | - | - |
| 1787975441 | 17.78° C | 71% | 1012.2 hPa | 0 mm | 0.45 m/s, ° | - | - |
| 1787975381 | 17.78° C | 71% | 1012.2 hPa | 0 mm | 0.45 m/s, ° | - | - |
| 1787975321 | 17.78° C | 70% | 1012.2 hPa | 0 mm | 1.34 m/s, ° | - | - |
| 1787975261 | 17.78° C | 70% | 1012.3 hPa | 0 mm | 0.45 m/s, ° | - | - |
| 1787975201 | 17.78° C | 70% | 1012.2 hPa | 0 mm | 0 m/s | - | - |
| 1787975141 | 17.78° C | 70% | 1012.2 hPa | 0 mm | 0 m/s | - | - |
| 1787975081 | 17.78° C | 70% | 1012.2 hPa | 0 mm | 0 m/s | - | - |
| 1787975021 | 17.78° C | 70% | 1012.1 hPa | 0 mm | 0.45 m/s, ° | - | - |
* Rain latest hour (hover to see other rain measurements)
** Current wind speed in m/s (hover to see current wind gust speed)